Regional Weather Roundup
Issued by NWS

Home | Current Version | Previous Version | Graphics & Text | Print | Product List | Glossary On
Versions: 1 2 3 4 5 6 7 8 9 10 11 12 13 14 15 16 17 18 19 20 21 22 23 24 25 26 27 28 29 30 31 32 33 34 35 36 37 38 39 40 41 42 43 44 45 46 47 48 49 50
000
ASUS43 KDMX 250001
RWRIA

WEATHER ROUNDUP FOR IOWA
NATIONAL WEATHER SERVICE DES MOINES IA
700 PM CDT FRI MAR 24 2017

NOTE: "FAIR" INDICATES FEW OR NO CLOUDS BELOW 12,000 FEET WITH NO
SIGNIFICANT WEATHER AND/OR OBSTRUCTIONS TO VISIBILITY.

* - THESE STATIONS ARE NOT NWS STATIONS...THUS NOT UNDER NWS
QUALITY CONTROL.  THEY ALSO DO NOT REPORT WEATHER SUCH
AS PRECIPITATION OR FOG.

IAZ001>003-012>014-020>022-031>034-043>046-250100-
   NORTHWEST IOWA

CITY           SKY/WX    TMP DP  RH WIND       PRES   REMARKS
CARROLL *      RAIN      41  41 100 NE15      30.01S VSB 1
LE MARS *      CLOUDY    43  39  87 NE14G20   30.05S
ORANGE CITY *  CLOUDY    41  39  93 NE10G20   30.04S FOG
SHELDON *      CLOUDY    41  41 100 NE20G28   30.03F FOG
SIOUX CITY     LGT RAIN  43  40  89 NE12      30.06R
6HR MIN TEMP:  41; 6HR MAX TEMP:  43; 6HR PCP:  0.01;

SPENCER        CLOUDY    42  39  89 NE22      30.05S
6HR MIN TEMP:  39; 6HR MAX TEMP:  43; 6HR PCP:  0.02;

STORM LAKE *   CLOUDY    41  39  93 NE22G29   30.03R
$$

IAZ055>058-069>071-079>083-090>094-250100-
   SOUTHWEST IOWA

CITY           SKY/WX    TMP DP  RH WIND       PRES   REMARKS
ATLANTIC *     LGT RAIN  43  43 100 NE16      29.97R
AUDUBON *      RAIN      41  39  93 N12G20    30.00R
CLARINDA *     CLOUDY    50  50 100 NE14      29.93S FOG
COUNCIL BLFS * MIX PCPN  43  43 100 N22       29.97R
CRESTON *      CLOUDY    46  46 100 NE17      29.93F FOG
HARLAN  *      MIX PCPN  41  41 100 NE16      30.02R
LAMONI         LGT RAIN  55  54  96 E7        29.89F FOG
6HR MIN TEMP:  55; 6HR MAX TEMP:  57; 6HR PCP:  0.27;

RED OAK *      LGT RAIN  45  45 100 NE18G25   29.94S
SHENANDOAH *   CLOUDY    46  45  93 NE17      29.93R
$$

IAZ047>049-059>061-072>074-084-250100-
   CENTRAL IOWA

CITY           SKY/WX    TMP DP  RH WIND       PRES   REMARKS
AMES           LGT RAIN  44  44 100 N9        30.00R FOG
6HR MIN TEMP:  44; 6HR MAX TEMP:  48; 6HR PCP:  0.08;

ANKENY *       LGT RAIN  46  45  93 NE13      29.99S
BOONE *        RAIN      43  43 100 NE13      30.00R
CHARITON *     LGT RAIN  52  52 100 N9        29.94R VSB 1
DES MOINES     LGT RAIN  48  45  89 N13       29.97R FOG
6HR MIN TEMP:  48; 6HR MAX TEMP:  51; 6HR PCP:  0.14;

GRINNELL*      RAIN      47  45  95 N7        29.98R
MARSHALLTOWN   LGT RAIN  44  43  96 N13       29.99R FOG
6HR MIN TEMP:  44; 6HR MAX TEMP:  50; 6HR PCP: TRACE;

NEWTON *       CLOUDY    46  45  93 NE12      29.96S FOG
PELLA *        DRIZZLE   49  49  97 N10       29.96R
PERRY *        LGT RAIN  44  42  94 N10       30.00R
$$

IAZ004>006-015-016-023>025-035-036-250100-
   NORTH CENTRAL IOWA

CITY           SKY/WX    TMP DP  RH WIND       PRES   REMARKS
ALGONA *       CLOUDY    41  41 100 NE22      30.03F FOG
CLARION *      CLOUDY    41  41 100 NE16      30.03R FOG
ESTHERVILLE    CLOUDY    40  39  97 N17       30.05R WCI  31
6HR MIN TEMP:  38; 6HR MAX TEMP:  41;

FORT DODGE *   CLOUDY    41  36  81 NE14      30.04R
MASON CITY     CLOUDY    40  38  93 N18       30.06R WCI  31
6HR MIN TEMP:  40; 6HR MAX TEMP:  43;

WEBSTER CITY * RAIN      41  41 100 N15       30.00R
IOWA FALLS *   LGT RAIN  43  40  91 N15       30.01R
$$

IAZ007>011-017>019-026>030-037>042-050>054-066-250100-
   NORTHEAST IOWA

CITY           SKY/WX    TMP DP  RH WIND       PRES   REMARKS
CEDAR RAPIDS   LGT RAIN  50  50 100 NW6       29.96R FOG
6HR MIN TEMP:  50; 6HR MAX TEMP:  71; 6HR PCP:  0.25;

CHARLES CITY * HVY RAIN  41  41 100 N14G21    30.03R
CLINTON *      LGT RAIN  57  53  86 CALM      29.98R
DECORAH *      MIX PCPN  41  39  93 NE8G15    30.02R
DUBUQUE        CLOUDY    50  49  96 N14       29.96R FOG
6HR MIN TEMP:  50; 6HR MAX TEMP:  73; 6HR PCP:  0.12;

MONTICELLO *   LGT RAIN  50  48  93 NE10      29.95R
OELWEIN *      LGT RAIN  43  43 100 NE16      29.99S
WATERLOO       LGT RAIN  43  40  89 N13       29.99R FOG
6HR MIN TEMP:  43; 6HR MAX TEMP:  50; 6HR PCP:  0.02;

$$

IAZ064-065-067-068-078-250100-
   EAST CENTRAL IOWA

CITY           SKY/WX    TMP DP  RH WIND       PRES   REMARKS
DAVENPORT      RAIN      57  53  86 W6        29.98R FOG
6HR MIN TEMP:  57; 6HR MAX TEMP:  78; 6HR PCP:  0.01;

IOWA CITY      LGT RAIN  55  53  93 CALM      29.99R FOG
6HR MIN TEMP:  55; 6HR MAX TEMP:  76; 6HR PCP:  0.19;

MUSCATINE *    RAIN      57  54  88 S5        29.99R
QUAD CITIES    LGT RAIN  59  52  77 W9        29.97R
6HR MIN TEMP:  59; 6HR MAX TEMP:  78; 6HR PCP:  0.01;

$$

IAZ062-063-075>077-085>089-095>099-250100-
   SOUTHEAST IOWA

CITY           SKY/WX    TMP DP  RH WIND       PRES   REMARKS
BURLINGTON     CLOUDY    57  56  96 NW3       29.96R
6HR MIN TEMP:  57; 6HR MAX TEMP:  77; 6HR PCP:  0.11;

FAIRFIELD *    CLOUDY    55  55 100 CALM      29.95S FOG
FORT MADISON * LGT RAIN  57  54  88 CALM      29.96F
KEOKUK *       LGT RAIN  57  57 100 CALM      29.94F
OTTUMWA        LGT RAIN  56  56 100 SE5       29.94R FOG
6HR MIN TEMP:  56; 6HR MAX TEMP:  71; 6HR PCP:  0.22;

WASHINGTON *   LGT RAIN  55  55 100 S6        29.98R
$$

ABBREVIATIONS USED IN REMARKS
   TC - TEMPERATURES IN CELSIUS
  WCI - WIND CHILL INDEX
   HX - HEAT INDEX
  VSB - VISIBILITY
$$





USA.gov is the U.S. government's official web portal to all federal, state and local government web resources and services.